Weather reports worldwide

Advertisment
Treviso/S. Angelo, Italy (16099): temperature & dewpoint: 31.05.2020 19:00:00 - 06.06.2020 19:00:00 (CEST)Treviso/S. Angelo, Italy (16099): wind speed: 31.05.2020 19:00:00 - 06.06.2020 19:00:00 (CEST)Treviso/S. Angelo, Italy (16099): wind direction: 31.05.2020 19:00:00 - 06.06.2020 19:00:00 (CEST)Treviso/S. Angelo, Italy (16099): reduced air pressure: 31.05.2020 19:00:00 - 06.06.2020 19:00:00 (CEST)Treviso/S. Angelo, Italy (16099): visibility: 31.05.2020 19:00:00 - 06.06.2020 19:00:00 (CEST)Treviso/S. Angelo, Italy (16099): precipitation: 31.05.2020 19:00:00 - 06.06.2020 19:00:00 (CEST)
Date & Time tt [°C] td [°C] ff [km/h] ff [kn] dd ppp [hPa] vv [km] rr [mm]
06.06.2020 19:00:00 - - - - - - - -
06.06.2020 18:00:00 - - - - - - - -
06.06.2020 17:00:00 22,2 14,2 5 3 N 1006,9 20 0,0
06.06.2020 16:00:00 - - - - - - - -
06.06.2020 15:00:00 - - - - - - - -
06.06.2020 14:00:00 24,3 17,4 11 6 ESE 1007,2 - -
06.06.2020 13:00:00 - - - - - - - -
06.06.2020 12:00:00 - - - - - - - -
06.06.2020 11:00:00 21,6 17,6 9 5 ENE 1008,0 - 0,0
06.06.2020 10:00:00 - - - - - - - -
06.06.2020 09:00:00 - - - - - - - -
06.06.2020 08:00:00 20,1 18,1 5 3 ENE 1007,4 - -
06.06.2020 07:00:00 - - - - - - - -
06.06.2020 06:00:00 - - - - - - - -
06.06.2020 05:00:00 18,1 17,5 8 4 NE 1006,1 - 0,0
06.06.2020 04:00:00 - - - - - - - -
06.06.2020 03:00:00 - - - - - - - -
06.06.2020 02:00:00 18,5 17,4 2 1 N 1005,6 - -
06.06.2020 01:00:00 - - - - - - - -
06.06.2020 00:00:00 - - - - - - - -
05.06.2020 23:00:00 19,6 16,5 4 2 NNE 1004,3 - 0,0
05.06.2020 22:00:00 - - - - - - - -
05.06.2020 21:00:00 - - - - - - - -
05.06.2020 20:00:00 22,5 15,9 9 5 SSE 1001,4 - -
05.06.2020 19:00:00 - - - - - - - -
05.06.2020 18:00:00 - - - - - - - -
05.06.2020 17:00:00 23,6 13,5 2 1 N 1000,0 - 0,0
05.06.2020 16:00:00 - - - - - - - -
05.06.2020 15:00:00 - - - - - - - -
05.06.2020 14:00:00 22,3 12,8 13 7 ENE 998,9 - -
05.06.2020 13:00:00 - - - - - - - -
05.06.2020 12:00:00 - - - - - - - -
05.06.2020 11:00:00 19,3 15,1 15 8 ENE 997,3 - 0,0
05.06.2020 10:00:00 - - - - - - - -
05.06.2020 09:00:00 - - - - - - - -
05.06.2020 08:00:00 17,1 16,1 9 5 WSW 995,9 15 -
05.06.2020 07:00:00 - - - - - - - -
05.06.2020 06:00:00 - - - - - - - -
05.06.2020 05:00:00 17,7 16,7 2 1 N 994,6 - 0,0
05.06.2020 04:00:00 - - - - - - - -
05.06.2020 03:00:00 - - - - - - - -
05.06.2020 02:00:00 17,8 17,1 2 1 N 995,6 - -
05.06.2020 01:00:00 - - - - - - - -
05.06.2020 00:00:00 - - - - - - - -
04.06.2020 23:00:00 16,6 16,3 16 9 ENE 997,7 10 0,0
04.06.2020 22:00:00 - - - - - - - -
04.06.2020 21:00:00 - - - - - - - -
04.06.2020 20:00:00 16,7 16,4 5 3 E 1000,6 10 -
04.06.2020 19:00:00 - - - - - - - -
04.06.2020 18:00:00 - - - - - - - -
04.06.2020 17:00:00 17,8 17,2 8 4 SE 1001,8 15 0,0
04.06.2020 16:00:00 - - - - - - - -
04.06.2020 15:00:00 - - - - - - - -
04.06.2020 14:00:00 17,2 16,5 8 4 S 1003,6 5 -
04.06.2020 13:00:00 - - - - - - - -
04.06.2020 12:00:00 - - - - - - - -
04.06.2020 11:00:00 19,0 17,1 5 3 S 1003,9 - 0,0
04.06.2020 10:00:00 - - - - - - - -
04.06.2020 09:00:00 - - - - - - - -
04.06.2020 08:00:00 18,7 14,7 8 4 ENE 1003,3 25 -
04.06.2020 07:00:00 - - - - - - - -
04.06.2020 06:00:00 - - - - - - - -
04.06.2020 05:00:00 16,6 15,1 5 3 NNE 1003,5 - 0,0
04.06.2020 04:00:00 - - - - - - - -
04.06.2020 03:00:00 - - - - - - - -
04.06.2020 02:00:00 17,1 14,5 5 3 NE 1004,6 - -
04.06.2020 01:00:00 - - - - - - - -
04.06.2020 00:00:00 - - - - - - - -
03.06.2020 23:00:00 18,3 15,2 4 2 N 1005,3 20 0,0
03.06.2020 22:00:00 - - - - - - - -
03.06.2020 21:00:00 - - - - - - - -
03.06.2020 20:00:00 23,2 15,3 16 9 SE 1004,6 25 -
03.06.2020 19:00:00 - - - - - - - -
03.06.2020 18:00:00 - - - - - - - -
03.06.2020 17:00:00 26,5 15,8 9 5 SSE 1005,4 25 0,0
03.06.2020 16:00:00 - - - - - - - -
03.06.2020 15:00:00 - - - - - - - -
03.06.2020 14:00:00 24,8 16,1 13 7 ESE 1007,5 25 -
03.06.2020 13:00:00 - - - - - - - -
03.06.2020 12:00:00 - - - - - - - -
03.06.2020 11:00:00 23,7 15,9 4 2 ENE 1008,9 25 0,0
03.06.2020 10:00:00 - - - - - - - -
03.06.2020 09:00:00 - - - - - - - -
03.06.2020 08:00:00 19,6 14,2 9 5 NNE 1009,8 25 -
03.06.2020 07:00:00 - - - - - - - -
03.06.2020 06:00:00 - - - - - - - -
03.06.2020 05:00:00 16,8 14,2 5 3 NNE 1009,6 - 0,0
03.06.2020 04:00:00 - - - - - - - -
03.06.2020 03:00:00 - - - - - - - -
03.06.2020 02:00:00 18,2 15,4 8 4 NNE 1011,1 - -
03.06.2020 01:00:00 - - - - - - - -
03.06.2020 00:00:00 - - - - - - - -
02.06.2020 23:00:00 18,6 14,8 8 4 ENE 1011,5 25 0,0
02.06.2020 22:00:00 - - - - - - - -
02.06.2020 21:00:00 - - - - - - - -
02.06.2020 20:00:00 23,1 14,1 11 6 NE 1010,3 25 -
02.06.2020 19:00:00 - - - - - - - -
02.06.2020 18:00:00 - - - - - - - -
02.06.2020 17:00:00 26,8 11,3 15 8 SE 1010,8 20 0,0
02.06.2020 16:00:00 - - - - - - - -
02.06.2020 15:00:00 - - - - - - - -
02.06.2020 14:00:00 27,2 9,9 11 6 SSW 1012,3 30 -
02.06.2020 13:00:00 - - - - - - - -
02.06.2020 12:00:00 - - - - - - - -
02.06.2020 11:00:00 24,2 9,7 5 3 W 1014,2 30 0,0
02.06.2020 10:00:00 - - - - - - - -
02.06.2020 09:00:00 - - - - - - - -
02.06.2020 08:00:00 18,9 14,0 11 6 NE 1015,0 30 -
02.06.2020 07:00:00 - - - - - - - -
02.06.2020 06:00:00 - - - - - - - -
02.06.2020 05:00:00 16,0 10,5 2 1 N 1015,9 - 0,0
02.06.2020 04:00:00 - - - - - - - -
02.06.2020 03:00:00 - - - - - - - -
02.06.2020 02:00:00 15,8 11,1 2 1 SW 1016,4 - -
02.06.2020 01:00:00 - - - - - - - -
02.06.2020 00:00:00 - - - - - - - -
01.06.2020 23:00:00 19,7 9,4 2 1 N 1016,5 55 0,0
01.06.2020 22:00:00 - - - - - - - -
01.06.2020 21:00:00 - - - - - - - -
01.06.2020 20:00:00 23,3 7,5 5 3 S 1015,8 30 -
01.06.2020 19:00:00 - - - - - - - -
01.06.2020 18:00:00 - - - - - - - -
01.06.2020 17:00:00 26,3 8,0 11 6 S 1016,2 - 0,0
01.06.2020 16:00:00 - - - - - - - -
01.06.2020 15:00:00 - - - - - - - -
01.06.2020 14:00:00 25,5 7,9 5 3 N 1017,0 65 -
01.06.2020 13:00:00 - - - - - - - -
01.06.2020 12:00:00 - - - - - - - -
01.06.2020 11:00:00 23,3 11,8 5 3 S 1017,4 75 0,0
01.06.2020 10:00:00 - - - - - - - -
01.06.2020 09:00:00 - - - - - - - -
01.06.2020 08:00:00 17,8 12,0 5 3 SSW 1017,9 26 -
01.06.2020 07:00:00 - - - - - - - -
01.06.2020 06:00:00 - - - - - - - -
01.06.2020 05:00:00 15,2 12,3 2 1 SW 1017,3 - 0,0
01.06.2020 04:00:00 - - - - - - - -
01.06.2020 03:00:00 - - - - - - - -
01.06.2020 02:00:00 16,4 11,7 4 2 NE 1017,7 - -
01.06.2020 01:00:00 - - - - - - - -
01.06.2020 00:00:00 - - - - - - - -
31.05.2020 23:00:00 16,3 11,2 2 1 N 1016,4 17 0,0
31.05.2020 22:00:00 - - - - - - - -
31.05.2020 21:00:00 - - - - - - - -
31.05.2020 20:00:00 19,8 10,5 8 4 SE 1014,8 15 -
31.05.2020 19:00:00 - - - - - - - -

tt = temperature
td = dewpoint
ff = wind speed
dd = wind direction
ppp = reduced air pressure
vv = visibility
rr = precipitation

Next stations